PDT,Max TemperatureF,Mean TemperatureF,Min TemperatureF,Max Dew PointF,MeanDew PointF,Min DewpointF,Max Humidity, Mean Humidity, Min Humidity, Max Sea Level PressureIn, Mean Sea Level PressureIn, Min Sea Level PressureIn, Max VisibilityMiles, Mean VisibilityMiles, Min VisibilityMiles, Max Wind SpeedMPH, Mean Wind SpeedMPH, Max Gust SpeedMPH,PrecipitationIn, CloudCover, Events, WindDirDegrees
2013-3-1,73,62,50,,,,,,,30.41,30.33,30.24,15,5,0,9,5,,0.00,3,Fog,351
2013-3-2,66,57,48,,,,,,,30.21,30.14,30.07,15,13,10,12,5,,0.00,7,,353
2013-3-3,66,58,48,,,,,,,30.11,30.08,30.04,15,13,7,16,8,,0.00,5,,347
2013-3-4,57,52,46,,,,,,,30.16,30.12,30.08,15,12,10,14,7,23,0.00,4,,353
2013-3-5,62,52,42,,,,,,,30.08,29.98,29.89,20,12,10,17,9,30,0.00,5,,186
2013-3-6,57,54,48,,,,,,,30.08,30.05,30.00,20,14,10,15,9,,0.00,7,,246
2013-3-7,60,50,41,,,,,,,29.96,29.91,29.86,20,15,10,12,7,,0.00,6,Rain,8
2013-3-8,60,53,46,,,,,,,30.04,29.94,29.87,20,14,10,17,9,23,0.00,4,,294
2013-3-9,66,52,39,,,,,,,30.30,30.26,30.21,15,15,15,12,6,,0.00,1,,334
2013-3-10,68,54,39,,,,,,,30.36,30.31,30.26,20,20,20,14,6,,0.00,2,,343
2013-3-11,69,54,39,32,32,32,25,25,25,30.26,30.19,30.11,20,14,10,14,6,21,0.00,2,,344
2013-3-12,68,59,50,,,,,,,30.17,30.13,30.07,20,10,7,12,7,,0.00,3,,341
2013-3-13,75,60,44,,,,,,,30.17,30.11,30.06,20,9,0,13,7,,0.00,3,Fog,352
2013-3-14,66,56,46,,,,,,,30.17,30.14,30.11,10,8,5,13,9,,0.00,5,,336
2013-3-15,66,56,46,,,,,,,30.13,30.10,30.06,20,12,10,14,5,,0.00,5,,337
2013-3-16,66,58,51,,,,,,,30.12,30.08,30.04,20,9,5,16,8,26,0.00,4,,341
2013-3-17,66,54,42,,,,,,,30.16,30.10,30.06,10,10,10,21,8,26,0.00,3,,340
2013-3-18,62,52,42,,,,,,,30.12,30.09,30.05,10,10,10,9,4,,0.00,6,,354
2013-3-19,69,56,44,52,52,52,64,64,64,30.15,30.11,30.08,10,8,6,14,5,21,0.00,6,Rain,358
2013-3-20,66,58,51,,,,,,,30.13,30.10,30.08,15,12,7,14,5,,0.00,7,,285
2013-3-21,66,57,48,,,,,,,30.13,30.08,30.02,15,12,10,14,9,,0.00,2,,320
2013-3-22,68,57,46,,,,,,,30.12,30.07,30.02,20,14,10,16,8,,0.00,0,,318
2013-3-23,66,55,44,,,,,,,30.15,30.11,30.04,,,,12,6,,0.00,2,,358
2013-3-24,66,54,41,,,,,,,30.11,30.05,29.98,20,12,10,17,8,,0.00,1,,349
2013-3-25,59,50,41,,,,,,,30.04,30.01,29.96,15,11,10,18,8,24,0.00,6,,346
2013-3-26,62,54,46,,,,,,,30.02,29.98,29.94,15,11,10,17,7,,0.00,5,,355
2013-3-27,66,60,53,,,,,,,30.00,29.98,29.96,20,11,10,13,8,,0.00,6,,343
2013-3-28,69,63,57,,,,,,,30.07,30.05,30.02,20,14,10,21,7,23,0.00,6,,350
2013-3-29,78,64,51,,,,,,,30.09,30.05,30.00,10,8,5,21,5,,0.00,3,,330
2013-3-30,69,62,55,,,,,,,30.08,30.03,29.97,15,9,6,12,7,,0.00,7,,357
2013-3-31,69,62,51,,,,,,,30.06,30.04,30.00,20,13,10,16,10,,0.00,5,Rain,180